When you browse on this site, cookies collect data to enhance your experience and personalize the content and advertising you see.
Visit our Privacy Policy to learn more. By continuing to use the site, you agree to this use of cookies and data.
  • In Hungary
  • List of Countries
  • For 7 days
  • Water Temperature
  • Weather Map
  • News
  • Weather Widgets
  • user-avatar
    Login

    Hourly Weather Darwen

    Today, 21 August, Wednesday

    Time Temperature Precipitation Wind Pressure Humidity
    00:00 +12°C° 0.1 mm 3 mps 749 mmHg 90%
    01:00 +12°C° 0.1 mm 3 mps 749 mmHg 91%
    02:00 +12°C° 0.1 mm 3 mps 749 mmHg 91%
    03:00 +13°C° 0.1 mm 3 mps 749 mmHg 92%
    04:00 +13°C° 0.1 mm 3 mps 749 mmHg 92%
    05:00 +12°C° 0.1 mm 3 mps 749 mmHg 92%
    06:00 +12°C° 0.1 mm 3 mps 749 mmHg 92%
    07:00 +13°C° 0.1 mm 3 mps 749 mmHg 87%
    08:00 +14°C° 0.1 mm 4 mps 749 mmHg 83%
    09:00 +15°C° 0.1 mm 4 mps 749 mmHg 78%
    10:00 +16°C° 0.1 mm 5 mps 749 mmHg 74%
    11:00 +17°C° 0.1 mm 5 mps 749 mmHg 69%
    12:00 +19°C° 0.1 mm 5 mps 748 mmHg 65%
    13:00 +19°C° 0.2 mm 5 mps 748 mmHg 66%
    14:00 +19°C° 0.2 mm 6 mps 748 mmHg 66%
    15:00 +19°C° 0.2 mm 6 mps 748 mmHg 67%
    16:00 +17°C° 0.1 mm 6 mps 747 mmHg 70%
    17:00 +16°C° 0.1 mm 6 mps 747 mmHg 73%
    18:00 +15°C° 0.1 mm 5 mps 747 mmHg 75%
    19:00 +15°C° 0.2 mm 5 mps 746 mmHg 77%
    20:00 +14°C° 0.2 mm 5 mps 746 mmHg 79%
    21:00 +13°C° 0.2 mm 5 mps 746 mmHg 81%
    22:00 +13°C° 0.8 mm 5 mps 746 mmHg 84%
    23:00 +13°C° 0.8 mm 5 mps 746 mmHg 86%

    Tomorrow, 22 August, Thursday

    Time Temperature Precipitation Wind Pressure Humidity
    00:00 +13°C° 0.8 mm 5 mps 746 mmHg 89%
    01:00 +13°C° 0.9 mm 5 mps 746 mmHg 89%
    02:00 +13°C° 0.9 mm 6 mps 746 mmHg 90%
    03:00 +14°C° 0.9 mm 6 mps 745 mmHg 91%
    04:00 +14°C° 0.3 mm 5 mps 746 mmHg 91%
    05:00 +14°C° 0.3 mm 5 mps 746 mmHg 91%
    06:00 +14°C° 0.3 mm 4 mps 746 mmHg 90%
    07:00 +14°C° 0.1 mm 4 mps 746 mmHg 88%
    08:00 +14°C° 0.1 mm 4 mps 747 mmHg 86%
    09:00 +14°C° 0.1 mm 3 mps 747 mmHg 83%
    10:00 +15°C° 0.1 mm 4 mps 747 mmHg 81%
    11:00 +17°C° 0.1 mm 4 mps 747 mmHg 79%
    12:00 +17°C° 0.1 mm 5 mps 747 mmHg 77%
    13:00 +17°C° 0.1 mm 5 mps 747 mmHg 75%
    14:00 +17°C° 0.1 mm 5 mps 747 mmHg 73%
    15:00 +19°C° 0.1 mm 5 mps 747 mmHg 71%
    16:00 +19°C° 0 mm 5 mps 747 mmHg 73%
    17:00 +17°C° 0 mm 5 mps 747 mmHg 75%
    18:00 +18°C° 0 mm 4 mps 746 mmHg 77%
    19:00 +17°C° 0 mm 4 mps 747 mmHg 79%
    20:00 +17°C° 0 mm 4 mps 747 mmHg 80%
    21:00 +15°C° 0 mm 4 mps 747 mmHg 82%
    22:00 +15°C° 0 mm 4 mps 747 mmHg 84%
    23:00 +15°C° 0 mm 4 mps 747 mmHg 86%

    Day after tomorrow, 23 August, Friday

    Time Temperature Precipitation Wind Pressure Humidity
    00:00 +14°C° 0 mm 3 mps 747 mmHg 88%
    01:00 +14°C° 0 mm 3 mps 747 mmHg 90%
    02:00 +14°C° 0 mm 3 mps 747 mmHg 91%
    03:00 +15°C° 0 mm 2 mps 747 mmHg 92%
    04:00 +15°C° 0 mm 2 mps 747 mmHg 92%
    05:00 +14°C° 0 mm 3 mps 748 mmHg 93%
    06:00 +14°C° 0 mm 3 mps 748 mmHg 93%
    07:00 +16°C° 0 mm 3 mps 748 mmHg 89%
    08:00 +17°C° 0 mm 3 mps 748 mmHg 84%
    09:00 +18°C° 0 mm 4 mps 748 mmHg 80%
    10:00 +19°C° 0 mm 3 mps 748 mmHg 76%
    11:00 +20°C° 0 mm 3 mps 748 mmHg 73%
    12:00 +21°C° 0 mm 3 mps 748 mmHg 69%
    13:00 +21°C° 0 mm 3 mps 748 mmHg 69%
    14:00 +21°C° 0 mm 3 mps 748 mmHg 69%
    15:00 +22°C° 0 mm 3 mps 748 mmHg 70%
    16:00 +21°C° 0 mm 2 mps 748 mmHg 73%
    17:00 +20°C° 0 mm 2 mps 748 mmHg 77%
    18:00 +21°C° 0 mm 1 mps 748 mmHg 80%
    19:00 +20°C° 0 mm 1 mps 748 mmHg 82%
    20:00 +19°C° 0 mm 1 mps 748 mmHg 84%
    21:00 +18°C° 0 mm 1 mps 748 mmHg 86%
    22:00 +18°C° 0 mm 1 mps 748 mmHg 87%
    23:00 +18°C° 0 mm 1 mps 747 mmHg 87%

    24 August, Saturday

    Time Temperature Precipitation Wind Pressure Humidity
    00:00 +16°C° 0 mm 1 mps 747 mmHg 87%
    01:00 +16°C° 0 mm 1 mps 747 mmHg 88%
    02:00 +16°C° 0 mm 1 mps 747 mmHg 88%
    03:00 +16°C° 0 mm 1 mps 747 mmHg 88%
    04:00 +16°C° 0 mm 1 mps 747 mmHg 88%
    05:00 +16°C° 0 mm 1 mps 746 mmHg 88%
    06:00 +16°C° 0 mm 2 mps 746 mmHg 88%
    07:00 +17°C° 0 mm 2 mps 746 mmHg 83%
    08:00 +19°C° 0 mm 2 mps 747 mmHg 78%
    09:00 +20°C° 0 mm 3 mps 747 mmHg 73%
    10:00 +21°C° 0 mm 3 mps 746 mmHg 69%
    11:00 +22°C° 0 mm 3 mps 746 mmHg 65%
    12:00 +23°C° 0 mm 4 mps 746 mmHg 61%
    13:00 +24°C° 0 mm 3 mps 746 mmHg 58%
    14:00 +25°C° 0 mm 3 mps 745 mmHg 55%
    15:00 +25°C° 0 mm 3 mps 745 mmHg 52%
    16:00 +24°C° 0 mm 3 mps 745 mmHg 56%
    17:00 +23°C° 0 mm 2 mps 745 mmHg 59%
    18:00 +23°C° 0 mm 2 mps 744 mmHg 63%
    19:00 +21°C° 0 mm 2 mps 744 mmHg 65%
    20:00 +19°C° 0 mm 2 mps 744 mmHg 67%
    21:00 +19°C° 0 mm 1 mps 744 mmHg 69%
    22:00 +18°C° 0 mm 2 mps 744 mmHg 70%
    23:00 +18°C° 0 mm 2 mps 744 mmHg 72%

    25 August, Sunday

    Time Temperature Precipitation Wind Pressure Humidity
    00:00 +17°C° 0 mm 2 mps 744 mmHg 74%
    01:00 +17°C° 0 mm 2 mps 744 mmHg 75%
    02:00 +17°C° 0 mm 2 mps 743 mmHg 77%
    03:00 +17°C° 0 mm 2 mps 743 mmHg 79%
    04:00 +17°C° 0 mm 2 mps 743 mmHg 79%
    05:00 +17°C° 0 mm 2 mps 743 mmHg 79%
    06:00 +18°C° 0 mm 1 mps 743 mmHg 80%
    07:00 +18°C° 0 mm 2 mps 743 mmHg 77%
    08:00 +19°C° 0 mm 2 mps 743 mmHg 74%
    09:00 +21°C° 0 mm 2 mps 743 mmHg 71%
    10:00 +23°C° 0.2 mm 2 mps 743 mmHg 66%
    11:00 +24°C° 0.2 mm 2 mps 743 mmHg 62%
    12:00 +25°C° 0.2 mm 3 mps 742 mmHg 58%
    13:00 +26°C° 0.5 mm 3 mps 742 mmHg 59%
    14:00 +26°C° 0.5 mm 3 mps 742 mmHg 59%
    15:00 +26°C° 0.5 mm 3 mps 742 mmHg 60%
    16:00 +25°C° 0.3 mm 3 mps 742 mmHg 65%
    17:00 +22°C° 0.3 mm 3 mps 742 mmHg 71%
    18:00 +21°C° 0.3 mm 3 mps 742 mmHg 76%
    19:00 +20°C° 0 mm 3 mps 742 mmHg 79%
    20:00 +18°C° 0 mm 3 mps 742 mmHg 82%
    21:00 +17°C° 0 mm 2 mps 743 mmHg 85%
    22:00 +16°C° 0 mm 3 mps 743 mmHg 87%
    23:00 +16°C° 0 mm 3 mps 743 mmHg 89%

    26 August, Monday

    Time Temperature Precipitation Wind Pressure Humidity
    00:00 +16°C° 0 mm 3 mps 743 mmHg 92%
    01:00 +14°C° 0 mm 3 mps 743 mmHg 91%
    02:00 +14°C° 0 mm 3 mps 743 mmHg 90%
    03:00 +14°C° 0 mm 3 mps 743 mmHg 90%
    04:00 +14°C° 0 mm 3 mps 744 mmHg 88%
    05:00 +14°C° 0 mm 3 mps 744 mmHg 86%
    06:00 +14°C° 0 mm 3 mps 744 mmHg 84%
    07:00 +16°C° 0 mm 3 mps 744 mmHg 81%
    08:00 +17°C° 0 mm 3 mps 745 mmHg 77%
    09:00 +18°C° 0 mm 4 mps 745 mmHg 74%
    10:00 +19°C° 0 mm 4 mps 745 mmHg 72%
    11:00 +21°C° 0 mm 4 mps 745 mmHg 71%
    12:00 +22°C° 0 mm 4 mps 745 mmHg 70%
    13:00 +22°C° 0 mm 4 mps 745 mmHg 70%
    14:00 +22°C° 0 mm 4 mps 745 mmHg 71%
    15:00 +23°C° 0 mm 4 mps 745 mmHg 72%
    16:00 +22°C° 0 mm 4 mps 745 mmHg 74%
    17:00 +22°C° 0 mm 3 mps 745 mmHg 77%
    18:00 +21°C° 0 mm 3 mps 745 mmHg 80%
    19:00 +20°C° 0 mm 3 mps 746 mmHg 82%
    20:00 +19°C° 0 mm 3 mps 746 mmHg 85%
    21:00 +18°C° 0 mm 3 mps 746 mmHg 87%
    22:00 +18°C° 0 mm 3 mps 746 mmHg 87%
    23:00 +18°C° 0 mm 3 mps 746 mmHg 87%
    Show more